Tracking 18843 objects as of 20-November-2017
HD Live streaming from Space Station
objects crossing your sky now

USA 65

Track USA 65 now!
USA 65 is classified as:


NORAD ID: 20929
Int'l Code: 1990-095A
Perigee: 36,296.2 km
Apogee: 36,360.7 km
Inclination: 15.4 °
Period: 1,463.5 minutes
Semi major axis: 42699 km
RCS: Unknown
Launch date: November 13, 1990
Source: United States (US)
Launch site: AIR FORCE EASTERN TEST RANGE (AFETR)
aabbcc
Your satellite tracking list
Your tracking list is empty




NASA's NSSDC Master Catalog

Two Line Element Set (TLE):
1 20929U 90095A   17314.14291350 0.00000000  00000-0  00000-0 0    09
2 20929  15.3948   9.6086 0007552 334.0489  25.9253  0.98394196    08
Source of the keplerian elements: McCants